TimeCST,TemperatureF,Dew PointF,Humidity,Sea Level PressureIn,VisibilityMPH,Wind Direction,Wind SpeedMPH,Gust SpeedMPH,PrecipitationIn,Events,Conditions,WindDirDegrees,DateUTC
12:53 AM,37.0,25.0,62,30.02,10.0,SW,10.4,-,N/A,,Clear,220,2013-01-18 06:53:00
1:53 AM,36.0,24.1,62,30.03,10.0,SW,10.4,-,N/A,,Clear,220,2013-01-18 07:53:00
2:53 AM,35.1,24.1,64,30.01,10.0,SW,11.5,-,N/A,,Clear,220,2013-01-18 08:53:00
3:53 AM,36.0,23.0,59,29.99,10.0,SW,8.1,-,N/A,,Clear,220,2013-01-18 09:53:00
4:53 AM,37.0,21.9,54,29.96,10.0,SW,9.2,-,N/A,,Clear,230,2013-01-18 10:53:00
5:53 AM,37.0,21.0,52,29.94,10.0,SW,6.9,-,N/A,,Clear,230,2013-01-18 11:53:00
6:53 AM,36.0,21.0,55,29.94,10.0,SW,5.8,-,N/A,,Clear,220,2013-01-18 12:53:00
7:53 AM,36.0,21.0,55,29.94,10.0,WSW,8.1,-,N/A,,Clear,240,2013-01-18 13:53:00
8:53 AM,37.9,21.0,51,29.96,10.0,WSW,8.1,-,N/A,,Clear,250,2013-01-18 14:53:00
9:53 AM,45.0,21.9,40,29.97,10.0,West,13.8,-,N/A,,Clear,270,2013-01-18 15:53:00
10:53 AM,51.1,24.1,35,29.96,10.0,West,15.0,-,N/A,,Clear,270,2013-01-18 16:53:00
11:53 AM,55.9,23.0,28,29.93,10.0,West,13.8,-,N/A,,Clear,260,2013-01-18 17:53:00
12:53 PM,57.0,21.9,26,29.88,10.0,West,23.0,31.1,N/A,,Clear,280,2013-01-18 18:53:00
1:53 PM,57.9,21.9,25,29.87,10.0,WNW,21.9,-,N/A,,Clear,290,2013-01-18 19:53:00
2:53 PM,55.9,23.0,28,29.87,10.0,WNW,17.3,-,N/A,,Clear,290,2013-01-18 20:53:00
3:53 PM,55.9,23.0,28,29.86,10.0,West,17.3,-,N/A,,Clear,270,2013-01-18 21:53:00
4:53 PM,52.0,24.1,34,29.88,10.0,West,11.5,-,N/A,,Clear,260,2013-01-18 22:53:00
5:53 PM,45.0,23.0,42,29.88,10.0,West,10.4,-,N/A,,Clear,260,2013-01-18 23:53:00
6:53 PM,42.1,27.0,55,29.91,10.0,SW,10.4,-,N/A,,Clear,230,2013-01-19 00:53:00
7:53 PM,43.0,26.1,51,29.89,10.0,SSW,8.1,-,N/A,,Clear,210,2013-01-19 01:53:00
8:53 PM,41.0,26.1,55,29.88,10.0,SSW,8.1,-,N/A,,Clear,210,2013-01-19 02:53:00
9:53 PM,39.9,26.1,58,29.87,10.0,SW,9.2,-,N/A,,Clear,230,2013-01-19 03:53:00
10:53 PM,44.1,25.0,47,29.85,10.0,WSW,9.2,-,N/A,,Clear,240,2013-01-19 04:53:00
11:53 PM,42.1,25.0,51,29.85,10.0,West,9.2,-,N/A,,Scattered Clouds,270,2013-01-19 05:53:00